Home > Time Zones > World Clock > Weather > Iran > Kerman > Past weeks

Flag for Iran Weather past 2 weeks in Kerman, Iran

Now
59 °F

Sunny.


Feels Like: 58 °F
Forecast: 29 / 59 °F
Wind: 7 mph from North

Location: Kerman Airport

Current Time: Jan 26, 2015 at 2:48:31 PM

Latest Report: Jan 26, 2015 at 2:30 PM


Visibility: 10 mi

Pressure: 30.24 "Hg

Humidity: 14%

Dew point: 10 °F

Location of KermanLocation

Historic Weather in Kerman — Graph

°F

Kerman temperature yesterday

Maximum temperature yesterday: 50 °F (at 3:30 PM)
Minimum temperature yesterday: 25 °F (at 6:30 AM)
Average temperature yesterday: 38 °F

Past Weeks' High & Low Weather Summary

 TemperatureHumidityPressure
High73 °F (Jan 15, 4:30 PM)100% (Jan 18, 3:30 AM)30.45 "Hg (Jan 18, 3:30 AM)
Low14 °F (Jan 14, 7:00 AM)2% (Jan 15, 4:30 PM)29.92 "Hg (Jan 19, 3:30 PM)
Average40 °F49%30.22 "Hg
* Reported Jan 11 1:30 PM — Jan 26 1:30 PM, Kerman, Weather by CustomWeather, © 2014

Note: Actual official high and low records may vary slightly from our data, if they occured in-between our weather recording intervals... More about our weather records

Advertising

Kerman weather history for previous 24 hours

 ConditionsComfort  
Time TempWeatherWind HumidityBarometerVisibility
1:30 PM
Jan 26
57 °FSunny.9 mph15%30.24 "Hg10 mi
12:30 PM55 °FSunny.7 mph15%30.27 "Hg10 mi
12:00 PM55 °FSunny.12 mph16%30.27 "Hg10 mi
11:30 AM54 °FSunny.7 mph19%30.30 "Hg10 mi
11:00 AM54 °FSunny.No wind24%30.33 "Hg10 mi
10:30 AM50 °FSunny.No wind30%30.33 "Hg10 mi
10:00 AM48 °FSunny.No wind34%30.33 "Hg10 mi
9:30 AM43 °FSunny.No wind42%30.33 "Hg10 mi
9:00 AM39 °FSunny.No wind52%30.33 "Hg10 mi
8:30 AM36 °FSunny.No wind60%30.33 "Hg10 mi
7:30 AM30 °FSunny.5 mph64%30.33 "Hg10 mi
7:00 AM25 °FClear.5 mph86%30.33 "Hg10 mi
6:30 AM23 °FClear.No wind86%30.30 "Hg10 mi
5:30 AM25 °FClear.5 mph86%30.30 "Hg10 mi
4:30 AM25 °FClear.5 mph80%30.27 "Hg10 mi
3:30 AM27 °FClear.5 mph80%30.30 "Hg10 mi
2:30 AM27 °FClear.5 mph74%30.30 "Hg10 mi
1:30 AM27 °FClear.5 mph80%30.30 "Hg10 mi
12:30 AM28 °FClear.7 mph69%30.33 "Hg10 mi
11:30 PM
Jan 25
30 °FClear.7 mph69%30.33 "Hg10 mi
10:30 PM30 °FClear.7 mph64%30.33 "Hg10 mi
9:30 PM34 °FClear.7 mph56%30.33 "Hg10 mi
8:30 PM37 °FClear.9 mph48%30.33 "Hg10 mi
7:30 PM39 °FClear.7 mph45%30.30 "Hg10 mi
6:30 PM41 °FClear.9 mph42%30.30 "Hg10 mi
6:00 PM41 °FClear.9 mph45%30.30 "Hg10 mi
5:30 PM45 °FSunny.9 mph39%30.30 "Hg10 mi
4:30 PM48 °FSunny.9 mph34%30.27 "Hg10 mi
3:30 PM50 °FPassing clouds.5 mph32%30.27 "HgN/A
2:30 PM48 °FPassing clouds.7 mph34%30.30 "HgN/A
Weather by CustomWeather, © 2014

See weather overviewHow to use our weather pages